Meridian, MS

12:31 AM CST on January 17, 2018 (GMT -0600)
Key

Weather History for KMEI - August, 2013

Change the Weather History Date:

Sunday, August 25, 2013

  Actual Average Record
Temperature  
Mean Temperature 80 °F 80 °F  
Max Temperature 87 °F 91 °F 102 °F (2000)
Min Temperature 73 °F 69 °F 49 °F (1891)
Degree Days  
Heating Degree Days 0 0  
Month to date heating degree days 0 0  
Since 1 June heating degree days 0 0  
Since 1 July heating degree days 0 0  
Cooling Degree Days 15 15  
Month to date cooling degree days 382 389  
Year to date cooling degree days 1506 1536  
Since 1 June cooling degree days 1246 1253  
Growing Degree Days 30 (Base 50)    
Moisture  
Dew Point 72 °F    
Average Humidity 81    
Maximum Humidity 100    
Minimum Humidity 61    
Precipitation  
Precipitation 0.01 in 0.11 in 1.90 in (2008)
Month to date precipitation 3.69 3.34  
Year to date precipitation 49.52 38.31  
Sea Level Pressure  
Sea Level Pressure 30.20 in    
Wind  
Wind Speed 6 mph (East)    
Max Wind Speed 13 mph    
Max Gust Speed 16 mph    
Visibility 10 miles    
Events      
T = Trace of Precipitation, MM = Missing Value Source: NWS Daily Summary

Daily Weather History Graph

Daily Weather History Graph

Search for Another Location

Airport or City:

Trip Planner

Search our weather history database for the weather conditions in past years. The results will help you decide how hot, cold, wet, or windy it might be!

Date:

Astronomy

Aug. 25, 2013 Rise Set
Actual Time 6:25 AM CDT 7:27 PM CDT
Civil Twilight 6:00 AM CDT 7:52 PM CDT
Nautical Twilight 5:30 AM CDT 8:22 PM CDT
Astronomical Twilight 4:59 AM CDT 8:53 PM CDT
Moon 10:20 PM CDT (8/25) 11:06 AM CDT (8/25)
Length of Visible Light 13h 52m
Length of Day
13h 01m
Waning Gibbous, 75% of the Moon is Illuminated
Aug 25
Waning Gibbous
Aug 28
Last Quarter
Sep 5
New
Sep 12
First Quarter
Sep 19
Full

Hourly Weather History & Observations

Time (CDT) Temp. Heat Index Dew Point Humidity Pressure Visibility Wind Dir Wind Speed Gust Speed Precip Events Conditions
12:58 AM 75.9 °F - 73.9 °F 94% 30.14 in 10.0 mi Calm Calm - N/A   Clear
1:58 AM 75.9 °F - 73.9 °F 94% 30.15 in 9.0 mi Calm Calm - N/A   Scattered Clouds
2:58 AM 75.9 °F - 73.9 °F 94% 30.15 in 10.0 mi NNE 4.6 mph - 0.01 in   Overcast
3:58 AM 73.9 °F - 73.0 °F 97% 30.15 in 10.0 mi Calm Calm - 0.00 in   Partly Cloudy
4:58 AM 73.9 °F - 73.0 °F 97% 30.16 in 10.0 mi NE 6.9 mph - N/A   Mostly Cloudy
5:22 AM 73.4 °F - 73.4 °F 100% 30.17 in 6.0 mi ENE 4.6 mph - N/A   Overcast
5:53 AM 73.4 °F - 71.6 °F 94% 30.19 in 9.0 mi East 4.6 mph - N/A   Overcast
5:58 AM 73.9 °F - 72.0 °F 93% 30.18 in 10.0 mi East 4.6 mph - N/A   Overcast
6:44 AM 73.4 °F - 71.6 °F 94% 30.21 in 10.0 mi ESE 6.9 mph - N/A   Scattered Clouds
6:58 AM 73.0 °F - 71.1 °F 93% 30.20 in 10.0 mi East 4.6 mph - N/A   Partly Cloudy
7:46 AM 73.4 °F - 71.6 °F 94% 30.22 in 10.0 mi East 3.5 mph - N/A   Mostly Cloudy
7:58 AM 73.9 °F - 71.1 °F 91% 30.22 in 10.0 mi East 4.6 mph - N/A   Overcast
8:48 AM 75.2 °F - 71.6 °F 89% 30.24 in 9.0 mi East 5.8 mph - N/A   Overcast
8:58 AM 75.9 °F - 72.0 °F 87% 30.23 in 9.0 mi ESE 8.1 mph - N/A   Overcast
9:58 AM 78.1 °F - 72.0 °F 81% 30.24 in 9.0 mi Variable 6.9 mph - N/A   Overcast
10:58 AM 79.0 °F - 72.0 °F 79% 30.24 in 10.0 mi ENE 6.9 mph - N/A   Overcast
11:58 AM 80.1 °F 83.6 °F 71.1 °F 74% 30.24 in 10.0 mi ESE 6.9 mph - N/A   Overcast
12:25 PM 80.6 °F 84.6 °F 71.6 °F 74% 30.24 in 10.0 mi ENE 11.5 mph - N/A   Overcast
12:44 PM 80.6 °F 84.6 °F 71.6 °F 74% 30.23 in 10.0 mi East 9.2 mph - N/A   Overcast
12:53 PM 82.4 °F 87.2 °F 71.6 °F 70% 30.23 in 10.0 mi East 8.1 mph - N/A   Mostly Cloudy
12:58 PM 82.0 °F 86.3 °F 71.1 °F 69% 30.22 in 10.0 mi East 10.4 mph - N/A   Mostly Cloudy
1:58 PM 84.0 °F 89.0 °F 71.1 °F 65% 30.20 in 10.0 mi East 8.1 mph - N/A   Scattered Clouds
2:58 PM 84.9 °F 89.4 °F 70.0 °F 61% 30.18 in 10.0 mi ENE 10.4 mph - N/A   Mostly Cloudy
3:58 PM 86.0 °F 91.5 °F 71.1 °F 61% 30.17 in 10.0 mi East 8.1 mph - N/A   Partly Cloudy
4:58 PM 84.0 °F 89.6 °F 72.0 °F 67% 30.16 in 10.0 mi ENE 6.9 mph - N/A   Scattered Clouds
5:58 PM 84.0 °F 89.6 °F 72.0 °F 67% 30.17 in 10.0 mi East 5.8 mph - N/A   Clear
6:58 PM 82.0 °F 86.3 °F 71.1 °F 69% 30.17 in 10.0 mi East 4.6 mph - N/A   Clear
7:58 PM 80.1 °F 83.8 °F 72.0 °F 76% 30.19 in 10.0 mi East 4.6 mph - N/A   Clear
8:58 PM 79.0 °F - 71.1 °F 77% 30.21 in 10.0 mi East 4.6 mph - 0.01 in   Clear
9:58 PM 78.1 °F - 71.1 °F 79% 30.22 in 10.0 mi East 6.9 mph - N/A   Clear
10:58 PM 77.0 °F - 69.1 °F 76% 30.23 in 10.0 mi East 4.6 mph - N/A   Clear
11:58 PM 75.9 °F - 69.1 °F 79% 30.22 in 10.0 mi East 4.6 mph - N/A   Clear